QPF
0.00 0.00 0.01 0.01 0.02 0.03 0.03 0.01 0.01 0.01 0.02 0.02 0.01 0.00 0.01 0.01 0.01 0.03 0.03 0.02 0.02 0.03 0.02 0.00 0.00 0.00 0.00 0.00 0.00 0.00 0.00 0.01 0.01 0.01 0.01 0.01 0.01 0.02 0.02 0.03 0.03 0.03 0.04 0.04 0.03 0.04 0.04 0.05 0.07
0.00 0.00 0.01 0.01 0.01 0.02 0.03 0.03 0.02 0.01 0.02 0.02 0.01 0.00 0.00 0.01 0.01 0.01 0.03 0.07 0.10 0.09 0.05 0.01 0.00 0.00 0.00 0.00 0.00 0.00 0.00 0.01 0.01 0.01 0.01 0.01 0.01 0.02 0.02 0.02 0.03 0.03 0.03 0.04 0.04 0.04 0.04 0.05 0.05
0.00 0.01 0.01 0.01 0.01 0.02 0.03 0.04 0.02 0.01 0.02 0.01 0.01 0.01 0.02 0.03 0.02 0.01 0.02 0.06 0.11 0.08 0.03 0.01 0.01 0.00 0.00 0.00 0.00 0.00 0.00 0.00 0.01 0.02 0.01 0.01 0.02 0.02 0.02 0.03 0.03 0.02 0.03 0.03 0.03 0.03 0.04 0.04 0.04
0.00 0.01 0.01 0.02 0.02 0.01 0.04 0.04 0.02 0.01 0.02 0.01 0.01 0.02 0.05 0.05 0.02 0.01 0.02 0.08 0.08 0.03 0.01 0.01 0.00 0.01 0.01 0.01 0.01 0.01 0.00 0.00 0.01 0.03 0.03 0.02 0.02 0.02 0.02 0.03 0.04 0.03 0.03 0.03 0.03 0.04 0.03 0.03 0.03
0.00 0.01 0.01 0.02 0.02 0.01 0.03 0.03 0.04 0.03 0.01 0.02 0.03 0.03 0.05 0.02 0.01 0.01 0.02 0.04 0.02 0.01 0.01 0.00 0.00 0.01 0.01 0.01 0.01 0.01 0.01 0.01 0.01 0.03 0.04 0.03 0.03 0.03 0.03 0.02 0.03 0.04 0.04 0.04 0.04 0.04 0.03 0.03 0.03
0.01 0.01 0.02 0.02 0.02 0.01 0.01 0.02 0.04 0.03 0.01 0.03 0.03 0.04 0.03 0.01 0.01 0.04 0.03 0.03 0.03 0.01 0.01 0.00 0.01 0.00 0.01 0.01 0.02 0.02 0.01 0.01 0.02 0.02 0.04 0.05 0.05 0.04 0.04 0.02 0.02 0.04 0.04 0.05 0.04 0.03 0.04 0.04 0.04
0.01 0.01 0.01 0.01 0.01 0.01 0.01 0.01 0.02 0.03 0.01 0.03 0.03 0.02 0.02 0.02 0.04 0.11 0.19 0.13 0.07 0.04 0.01 0.01 0.01 0.01 0.01 0.01 0.03 0.04 0.03 0.03 0.02 0.01 0.02 0.03 0.03 0.04 0.04 0.05 0.04 0.04 0.04 0.04 0.04 0.03 0.04 0.06 0.06
0.00 0.01 0.01 0.01 0.01 0.02 0.02 0.01 0.01 0.01 0.01 0.02 0.01 0.02 0.01 0.01 0.03 0.13 0.25 0.19 0.11 0.09 0.05 0.02 0.01 0.01 0.01 0.01 0.02 0.02 0.04 0.03 0.03 0.02 0.02 0.02 0.02 0.02 0.03 0.07 0.10 0.09 0.07 0.05 0.05 0.04 0.05 0.06 0.06
0.00 0.00 0.01 0.01 0.01 0.02 0.02 0.02 0.01 0.01 0.01 0.01 0.01 0.01 0.02 0.01 0.01 0.05 0.16 0.13 0.09 0.10 0.12 0.06 0.04 0.03 0.02 0.01 0.01 0.01 0.02 0.02 0.02 0.03 0.03 0.03 0.01 0.01 0.02 0.04 0.07 0.10 0.09 0.08 0.08 0.06 0.05 0.06 0.09
0.00 0.00 0.01 0.01 0.01 0.01 0.01 0.01 0.01 0.01 0.02 0.02 0.03 0.05 0.02 0.01 0.01 0.01 0.05 0.07 0.06 0.09 0.16 0.10 0.06 0.04 0.02 0.00 0.01 0.01 0.01 0.01 0.01 0.02 0.03 0.03 0.03 0.02 0.02 0.03 0.04 0.07 0.13 0.20 0.20 0.13 0.08 0.05 0.07
0.00 0.00 0.00 0.01 0.01 0.01 0.01 0.01 0.01 0.02 0.04 0.06 0.04 0.06 0.03 0.01 0.01 0.01 0.04 0.08 0.07 0.05 0.10 0.08 0.05 0.05 0.02 0.01 0.01 0.02 0.02 0.01 0.02 0.02 0.03 0.04 0.05 0.03 0.03 0.04 0.04 0.04 0.08 0.13 0.16 0.15 0.09 0.05 0.06
0.00 0.00 0.00 0.01 0.01 0.01 0.01 0.01 0.01 0.02 0.03 0.02 0.02 0.01 0.02 0.03 0.02 0.02 0.02 0.05 0.07 0.07 0.13 0.10 0.04 0.04 0.03 0.02 0.03 0.03 0.03 0.03 0.03 0.03 0.03 0.04 0.04 0.02 0.02 0.03 0.03 0.03 0.04 0.08 0.09 0.11 0.11 0.07 0.05
0.00 0.00 0.01 0.01 0.00 0.01 0.01 0.01 0.01 0.02 0.02 0.02 0.02 0.05 0.04 0.05 0.02 0.02 0.03 0.04 0.07 0.10 0.14 0.07 0.05 0.03 0.02 0.02 0.04 0.05 0.05 0.04 0.03 0.03 0.04 0.04 0.03 0.02 0.02 0.04 0.03 0.04 0.05 0.06 0.05 0.06 0.08 0.08 0.07
0.00 0.00 0.01 0.01 0.01 0.00 0.00 0.01 0.01 0.02 0.03 0.03 0.03 0.06 0.08 0.07 0.05 0.04 0.05 0.07 0.08 0.12 0.13 0.08 0.04 0.03 0.02 0.02 0.03 0.04 0.05 0.04 0.03 0.03 0.05 0.07 0.05 0.03 0.02 0.03 0.02 0.03 0.06 0.08 0.06 0.05 0.06 0.08 0.09
0.00 0.00 0.01 0.01 0.01 0.01 0.01 0.01 0.01 0.02 0.02 0.03 0.04 0.03 0.08 0.12 0.08 0.09 0.10 0.09 0.14 0.21 0.18 0.07 0.04 0.03 0.03 0.04 0.04 0.04 0.02 0.03 0.03 0.04 0.06 0.11 0.10 0.05 0.04 0.03 0.02 0.03 0.05 0.08 0.07 0.05 0.05 0.08 0.08
0.00 0.01 0.01 0.01 0.01 0.01 0.01 0.01 0.01 0.01 0.02 0.06 0.07 0.04 0.06 0.12 0.13 0.10 0.14 0.15 0.17 0.22 0.18 0.09 0.07 0.05 0.04 0.05 0.07 0.05 0.02 0.03 0.03 0.04 0.08 0.10 0.09 0.05 0.06 0.04 0.04 0.04 0.05 0.07 0.07 0.05 0.06 0.10 0.11
0.00 0.00 0.00 0.00 0.01 0.01 0.01 0.01 0.01 0.01 0.02 0.03 0.04 0.03 0.03 0.05 0.06 0.06 0.10 0.09 0.09 0.10 0.12 0.10 0.10 0.08 0.06 0.05 0.07 0.06 0.03 0.03 0.03 0.05 0.12 0.08 0.05 0.05 0.08 0.04 0.05 0.04 0.06 0.07 0.06 0.06 0.06 0.10 0.13
0.00 0.00 0.00 0.00 0.01 0.01 0.01 0.01 0.01 0.01 0.02 0.02 0.02 0.03 0.03 0.03 0.03 0.04 0.08 0.09 0.08 0.08 0.07 0.07 0.10 0.10 0.07 0.08 0.07 0.05 0.03 0.03 0.04 0.08 0.09 0.06 0.05 0.05 0.07 0.04 0.05 0.05 0.05 0.05 0.06 0.06 0.07 0.10 0.11
0.01 0.00 0.00 0.00 0.01 0.00 0.01 0.01 0.01 0.01 0.02 0.02 0.03 0.05 0.05 0.04 0.05 0.06 0.10 0.14 0.14 0.12 0.10 0.08 0.06 0.07 0.07 0.08 0.07 0.05 0.04 0.03 0.03 0.05 0.06 0.06 0.05 0.05 0.05 0.05 0.05 0.05 0.05 0.04 0.05 0.07 0.09 0.09 0.09
0.01 0.00 0.00 0.01 0.01 0.01 0.01 0.01 0.01 0.02 0.03 0.03 0.03 0.04 0.10 0.11 0.07 0.08 0.09 0.15 0.15 0.14 0.17 0.12 0.08 0.05 0.04 0.06 0.06 0.06 0.05 0.03 0.04 0.05 0.06 0.05 0.05 0.04 0.04 0.06 0.04 0.04 0.04 0.04 0.05 0.06 0.08 0.08 0.08
0.01 0.01 0.01 0.01 0.01 0.02 0.01 0.02 0.02 0.03 0.05 0.02 0.02 0.04 0.04 0.07 0.07 0.07 0.06 0.10 0.11 0.08 0.13 0.13 0.09 0.04 0.04 0.05 0.08 0.10 0.08 0.06 0.06 0.06 0.07 0.06 0.06 0.06 0.06 0.06 0.06 0.05 0.05 0.04 0.04 0.06 0.08 0.07 0.07
0.01 0.01 0.01 0.01 0.01 0.02 0.02 0.03 0.05 0.05 0.04 0.03 0.03 0.03 0.03 0.02 0.04 0.05 0.07 0.12 0.10 0.09 0.12 0.11 0.09 0.06 0.05 0.06 0.07 0.07 0.08 0.06 0.04 0.05 0.06 0.07 0.07 0.08 0.08 0.07 0.07 0.07 0.06 0.05 0.05 0.07 0.08 0.07 0.06
0.01 0.01 0.01 0.01 0.01 0.03 0.03 0.04 0.06 0.08 0.09 0.05 0.05 0.05 0.03 0.03 0.04 0.05 0.07 0.11 0.13 0.11 0.13 0.16 0.09 0.05 0.04 0.04 0.06 0.09 0.08 0.06 0.04 0.04 0.04 0.05 0.05 0.05 0.06 0.07 0.07 0.06 0.06 0.07 0.07 0.08 0.07 0.08 0.07
0.01 0.01 0.01 0.01 0.02 0.03 0.03 0.03 0.06 0.07 0.07 0.05 0.04 0.04 0.03 0.04 0.04 0.05 0.06 0.09 0.12 0.09 0.07 0.14 0.16 0.10 0.06 0.05 0.05 0.09 0.08 0.06 0.05 0.04 0.04 0.04 0.04 0.05 0.05 0.05 0.05 0.06 0.06 0.06 0.06 0.07 0.06 0.07 0.08
0.01 0.01 0.02 0.02 0.02 0.03 0.03 0.05 0.06 0.08 0.10 0.08 0.05 0.04 0.04 0.04 0.04 0.05 0.08 0.10 0.10 0.07 0.08 0.11 0.13 0.13 0.10 0.07 0.05 0.07 0.10 0.06 0.05 0.05 0.06 0.06 0.05 0.05 0.04 0.04 0.04 0.04 0.05 0.03 0.03 0.05 0.05 0.05 0.06
0.01 0.01 0.03 0.03 0.03 0.03 0.03 0.06 0.08 0.09 0.09 0.07 0.05 0.05 0.05 0.05 0.06 0.06 0.06 0.11 0.14 0.13 0.09 0.08 0.08 0.10 0.10 0.07 0.07 0.06 0.07 0.07 0.08 0.07 0.07 0.06 0.05 0.04 0.04 0.04 0.04 0.04 0.03 0.03 0.03 0.04 0.04 0.04 0.05
0.01 0.01 0.02 0.03 0.04 0.04 0.04 0.07 0.09 0.09 0.08 0.07 0.07 0.06 0.06 0.07 0.08 0.07 0.08 0.14 0.17 0.13 0.10 0.07 0.08 0.09 0.11 0.10 0.12 0.10 0.10 0.10 0.11 0.12 0.10 0.08 0.06 0.05 0.04 0.04 0.04 0.04 0.04 0.03 0.04 0.04 0.03 0.03 0.03
0.01 0.01 0.01 0.02 0.04 0.05 0.05 0.09 0.15 0.12 0.08 0.08 0.11 0.09 0.09 0.10 0.09 0.10 0.10 0.12 0.15 0.10 0.09 0.13 0.13 0.13 0.12 0.12 0.12 0.12 0.12 0.12 0.10 0.09 0.09 0.09 0.08 0.07 0.06 0.05 0.04 0.04 0.04 0.05 0.05 0.05 0.03 0.02 0.02
0.01 0.02 0.02 0.02 0.03 0.04 0.05 0.07 0.12 0.14 0.09 0.07 0.12 0.12 0.11 0.12 0.12 0.14 0.17 0.17 0.14 0.07 0.08 0.12 0.14 0.14 0.11 0.09 0.07 0.07 0.07 0.07 0.06 0.06 0.06 0.06 0.04 0.04 0.04 0.05 0.06 0.04 0.03 0.04 0.06 0.07 0.05 0.04 0.04
0.01 0.02 0.03 0.03 0.03 0.03 0.06 0.08 0.07 0.07 0.05 0.04 0.06 0.09 0.11 0.11 0.15 0.17 0.19 0.20 0.18 0.08 0.06 0.07 0.12 0.14 0.12 0.09 0.05 0.04 0.04 0.04 0.04 0.03 0.04 0.02 0.02 0.02 0.04 0.05 0.05 0.04 0.03 0.03 0.04 0.04 0.04 0.04 0.04
MSLP
1007.65 1008.75 1010.11 1011.54 1012.83 1013.79 1014.30 1014.31 1013.88 1013.15 1012.30 1011.53 1010.98 1010.71 1010.73 1010.95 1011.25 1011.49 1011.58 1011.48 1011.21 1010.84 1010.46 1010.17 1010.03 1010.05 1010.20 1010.43 1010.64 1010.80 1010.87 1010.85 1010.79 1010.74 1010.76 1010.88 1011.11 1011.42 1011.77 1012.12 1012.43 1012.67 1012.86 1012.99 1013.11 1013.24 1013.39 1013.56 1013.76
1007.88 1009.21 1010.74 1012.27 1013.58 1014.49 1014.89 1014.75 1014.14 1013.21 1012.17 1011.20 1010.48 1010.06 1009.97 1010.12 1010.39 1010.67 1010.84 1010.85 1010.72 1010.49 1010.24 1010.06 1010.00 1010.07 1010.24 1010.48 1010.71 1010.88 1010.98 1011.00 1010.98 1010.98 1011.02 1011.15 1011.36 1011.65 1011.96 1012.27 1012.53 1012.74 1012.89 1013.01 1013.11 1013.22 1013.36 1013.52 1013.70
1008.25 1009.74 1011.36 1012.92 1014.20 1015.04 1015.34 1015.08 1014.34 1013.28 1012.10 1011.01 1010.14 1009.60 1009.39 1009.44 1009.66 1009.92 1010.13 1010.22 1010.20 1010.09 1009.96 1009.88 1009.90 1010.02 1010.23 1010.48 1010.73 1010.93 1011.06 1011.13 1011.16 1011.19 1011.26 1011.38 1011.58 1011.82 1012.08 1012.34 1012.56 1012.74 1012.87 1012.98 1013.08 1013.19 1013.32 1013.47 1013.63
1008.72 1010.26 1011.88 1013.39 1014.60 1015.35 1015.56 1015.23 1014.44 1013.33 1012.12 1010.96 1010.03 1009.39 1009.07 1009.03 1009.17 1009.39 1009.60 1009.74 1009.80 1009.79 1009.76 1009.76 1009.84 1010.00 1010.22 1010.48 1010.74 1010.96 1011.12 1011.23 1011.30 1011.36 1011.45 1011.57 1011.74 1011.95 1012.17 1012.38 1012.57 1012.73 1012.85 1012.96 1013.07 1013.18 1013.31 1013.45 1013.61
1009.19 1010.68 1012.21 1013.59 1014.67 1015.32 1015.48 1015.14 1014.38 1013.33 1012.17 1011.05 1010.11 1009.43 1009.04 1008.92 1008.98 1009.15 1009.35 1009.51 1009.63 1009.69 1009.74 1009.80 1009.91 1010.08 1010.30 1010.54 1010.78 1010.99 1011.17 1011.30 1011.40 1011.50 1011.60 1011.73 1011.89 1012.07 1012.25 1012.43 1012.60 1012.74 1012.87 1012.99 1013.11 1013.23 1013.36 1013.50 1013.64
1009.57 1010.91 1012.25 1013.45 1014.37 1014.92 1015.05 1014.76 1014.11 1013.20 1012.18 1011.18 1010.31 1009.66 1009.25 1009.07 1009.08 1009.21 1009.39 1009.57 1009.73 1009.85 1009.95 1010.05 1010.17 1010.32 1010.49 1010.68 1010.88 1011.06 1011.22 1011.37 1011.49 1011.61 1011.74 1011.87 1012.02 1012.19 1012.35 1012.51 1012.66 1012.80 1012.94 1013.07 1013.20 1013.34 1013.47 1013.60 1013.71
1009.78 1010.90 1011.98 1012.94 1013.69 1014.14 1014.27 1014.08 1013.59 1012.89 1012.08 1011.25 1010.52 1009.94 1009.55 1009.36 1009.35 1009.46 1009.64 1009.85 1010.05 1010.22 1010.36 1010.48 1010.58 1010.69 1010.80 1010.92 1011.04 1011.17 1011.31 1011.44 1011.58 1011.72 1011.86 1012.02 1012.17 1012.32 1012.48 1012.62 1012.77 1012.91 1013.05 1013.19 1013.33 1013.47 1013.60 1013.71 1013.80
1009.79 1010.64 1011.44 1012.14 1012.70 1013.07 1013.21 1013.13 1012.83 1012.36 1011.78 1011.17 1010.60 1010.14 1009.81 1009.64 1009.64 1009.76 1009.96 1010.20 1010.45 1010.68 1010.85 1010.99 1011.07 1011.13 1011.17 1011.21 1011.26 1011.33 1011.42 1011.54 1011.68 1011.84 1012.01 1012.18 1012.34 1012.49 1012.63 1012.77 1012.91 1013.04 1013.19 1013.33 1013.47 1013.60 1013.72 1013.81 1013.87
1009.62 1010.19 1010.70 1011.16 1011.54 1011.82 1011.98 1012.00 1011.88 1011.64 1011.29 1010.89 1010.49 1010.14 1009.90 1009.78 1009.80 1009.95 1010.20 1010.49 1010.80 1011.08 1011.30 1011.45 1011.53 1011.55 1011.53 1011.50 1011.49 1011.51 1011.57 1011.68 1011.83 1012.00 1012.18 1012.36 1012.53 1012.68 1012.82 1012.95 1013.07 1013.20 1013.33 1013.46 1013.59 1013.71 1013.81 1013.88 1013.91
1009.33 1009.64 1009.90 1010.13 1010.35 1010.54 1010.71 1010.81 1010.84 1010.78 1010.62 1010.40 1010.15 1009.92 1009.76 1009.70 1009.77 1009.96 1010.25 1010.61 1010.98 1011.31 1011.58 1011.76 1011.84 1011.85 1011.81 1011.75 1011.71 1011.70 1011.75 1011.86 1012.02 1012.20 1012.40 1012.59 1012.76 1012.90 1013.03 1013.14 1013.25 1013.36 1013.47 1013.59 1013.70 1013.80 1013.88 1013.92 1013.92
1009.01 1009.11 1009.16 1009.21 1009.28 1009.40 1009.54 1009.70 1009.82 1009.88 1009.87 1009.78 1009.65 1009.51 1009.43 1009.42 1009.54 1009.78 1010.12 1010.52 1010.94 1011.32 1011.64 1011.86 1011.97 1012.00 1011.97 1011.92 1011.89 1011.89 1011.96 1012.08 1012.25 1012.44 1012.65 1012.84 1013.01 1013.15 1013.26 1013.36 1013.45 1013.54 1013.64 1013.74 1013.83 1013.90 1013.95 1013.96 1013.94
1008.73 1008.69 1008.59 1008.49 1008.44 1008.48 1008.59 1008.75 1008.92 1009.05 1009.12 1009.12 1009.08 1009.03 1009.01 1009.06 1009.22 1009.49 1009.86 1010.29 1010.74 1011.15 1011.50 1011.76 1011.92 1011.99 1012.01 1012.02 1012.03 1012.08 1012.18 1012.33 1012.52 1012.72 1012.93 1013.12 1013.28 1013.40 1013.51 1013.60 1013.68 1013.76 1013.84 1013.93 1014.00 1014.05 1014.07 1014.05 1014.00
1008.58 1008.45 1008.24 1008.03 1007.89 1007.85 1007.90 1008.04 1008.20 1008.36 1008.48 1008.55 1008.58 1008.60 1008.65 1008.75 1008.95 1009.24 1009.61 1010.04 1010.48 1010.90 1011.26 1011.54 1011.74 1011.88 1011.98 1012.06 1012.15 1012.27 1012.43 1012.61 1012.82 1013.03 1013.23 1013.40 1013.55 1013.67 1013.77 1013.87 1013.95 1014.03 1014.11 1014.18 1014.24 1014.26 1014.25 1014.21 1014.12
1008.58 1008.39 1008.11 1007.82 1007.60 1007.48 1007.48 1007.56 1007.71 1007.87 1008.02 1008.15 1008.25 1008.35 1008.48 1008.65 1008.88 1009.18 1009.54 1009.93 1010.32 1010.69 1011.03 1011.31 1011.54 1011.74 1011.92 1012.10 1012.29 1012.49 1012.70 1012.92 1013.14 1013.34 1013.52 1013.68 1013.81 1013.93 1014.04 1014.14 1014.25 1014.35 1014.44 1014.51 1014.55 1014.56 1014.52 1014.44 1014.32
1008.73 1008.48 1008.15 1007.80 1007.52 1007.33 1007.25 1007.28 1007.39 1007.55 1007.74 1007.93 1008.12 1008.33 1008.55 1008.80 1009.08 1009.39 1009.71 1010.03 1010.34 1010.64 1010.91 1011.16 1011.41 1011.65 1011.91 1012.18 1012.46 1012.74 1013.01 1013.25 1013.46 1013.64 1013.79 1013.92 1014.04 1014.16 1014.28 1014.41 1014.55 1014.68 1014.79 1014.87 1014.91 1014.90 1014.84 1014.73 1014.58
1008.95 1008.66 1008.28 1007.89 1007.55 1007.30 1007.16 1007.13 1007.21 1007.37 1007.59 1007.86 1008.16 1008.49 1008.84 1009.19 1009.53 1009.84 1010.12 1010.36 1010.57 1010.76 1010.94 1011.14 1011.37 1011.65 1011.97 1012.32 1012.67 1013.02 1013.32 1013.58 1013.77 1013.92 1014.02 1014.12 1014.22 1014.33 1014.48 1014.64 1014.82 1014.98 1015.12 1015.22 1015.25 1015.23 1015.16 1015.02 1014.85
1009.18 1008.86 1008.45 1008.02 1007.64 1007.34 1007.14 1007.06 1007.10 1007.26 1007.51 1007.86 1008.27 1008.73 1009.21 1009.67 1010.08 1010.41 1010.66 1010.82 1010.93 1011.00 1011.09 1011.22 1011.43 1011.72 1012.08 1012.49 1012.92 1013.31 1013.63 1013.88 1014.04 1014.14 1014.21 1014.26 1014.34 1014.45 1014.62 1014.81 1015.03 1015.23 1015.39 1015.50 1015.54 1015.51 1015.42 1015.28 1015.09
1009.36 1009.01 1008.59 1008.16 1007.76 1007.43 1007.18 1007.05 1007.04 1007.17 1007.43 1007.83 1008.33 1008.90 1009.50 1010.07 1010.55 1010.92 1011.15 1011.25 1011.27 1011.25 1011.26 1011.33 1011.52 1011.82 1012.22 1012.68 1013.15 1013.57 1013.91 1014.14 1014.27 1014.32 1014.34 1014.35 1014.41 1014.52 1014.70 1014.92 1015.16 1015.39 1015.57 1015.68 1015.72 1015.69 1015.60 1015.45 1015.27
1009.43 1009.10 1008.72 1008.33 1007.95 1007.60 1007.31 1007.11 1007.03 1007.09 1007.31 1007.70 1008.23 1008.87 1009.54 1010.19 1010.75 1011.15 1011.39 1011.47 1011.44 1011.37 1011.33 1011.38 1011.56 1011.88 1012.32 1012.83 1013.34 1013.79 1014.13 1014.35 1014.45 1014.46 1014.43 1014.41 1014.44 1014.55 1014.73 1014.97 1015.22 1015.46 1015.64 1015.76 1015.79 1015.76 1015.67 1015.54 1015.38
1009.39 1009.14 1008.87 1008.56 1008.24 1007.91 1007.59 1007.30 1007.10 1007.03 1007.14 1007.44 1007.92 1008.54 1009.23 1009.92 1010.52 1010.97 1011.24 1011.34 1011.32 1011.25 1011.21 1011.28 1011.49 1011.86 1012.34 1012.90 1013.45 1013.92 1014.28 1014.49 1014.56 1014.55 1014.49 1014.45 1014.47 1014.56 1014.74 1014.98 1015.23 1015.46 1015.64 1015.74 1015.76 1015.73 1015.65 1015.54 1015.42
1009.26 1009.17 1009.07 1008.93 1008.72 1008.43 1008.07 1007.68 1007.32 1007.05 1006.95 1007.06 1007.39 1007.90 1008.54 1009.21 1009.83 1010.32 1010.64 1010.80 1010.85 1010.84 1010.87 1011.00 1011.28 1011.71 1012.26 1012.87 1013.46 1013.97 1014.34 1014.56 1014.63 1014.60 1014.53 1014.48 1014.50 1014.59 1014.76 1014.99 1015.23 1015.43 1015.59 1015.66 1015.68 1015.64 1015.57 1015.50 1015.43
1009.10 1009.24 1009.39 1009.46 1009.40 1009.18 1008.79 1008.27 1007.71 1007.19 1006.81 1006.64 1006.73 1007.05 1007.55 1008.15 1008.75 1009.27 1009.66 1009.92 1010.07 1010.18 1010.32 1010.55 1010.93 1011.45 1012.07 1012.74 1013.38 1013.92 1014.32 1014.55 1014.64 1014.62 1014.57 1014.53 1014.55 1014.64 1014.81 1015.02 1015.23 1015.41 1015.53 1015.58 1015.57 1015.54 1015.49 1015.45 1015.43
1008.95 1009.39 1009.81 1010.13 1010.25 1010.11 1009.69 1009.05 1008.26 1007.45 1006.74 1006.25 1006.03 1006.10 1006.42 1006.90 1007.46 1008.00 1008.47 1008.84 1009.12 1009.38 1009.66 1010.03 1010.52 1011.13 1011.83 1012.55 1013.23 1013.81 1014.23 1014.49 1014.60 1014.62 1014.59 1014.58 1014.61 1014.72 1014.88 1015.07 1015.26 1015.40 1015.49 1015.51 1015.49 1015.45 1015.42 1015.41 1015.44
1008.88 1009.60 1010.31 1010.88 1011.17 1011.11 1010.68 1009.91 1008.90 1007.80 1006.77 1005.94 1005.41 1005.20 1005.30 1005.65 1006.15 1006.70 1007.24 1007.72 1008.15 1008.56 1009.00 1009.50 1010.10 1010.80 1011.56 1012.33 1013.04 1013.64 1014.09 1014.38 1014.52 1014.58 1014.59 1014.61 1014.68 1014.80 1014.96 1015.15 1015.31 1015.42 1015.48 1015.48 1015.44 1015.39 1015.37 1015.39 1015.44
1008.88 1009.85 1010.80 1011.58 1012.02 1012.03 1011.58 1010.70 1009.52 1008.17 1006.86 1005.73 1004.91 1004.45 1004.36 1004.56 1005.00 1005.55 1006.15 1006.73 1007.30 1007.85 1008.42 1009.04 1009.74 1010.51 1011.31 1012.10 1012.83 1013.44 1013.91 1014.22 1014.40 1014.50 1014.56 1014.62 1014.72 1014.87 1015.04 1015.22 1015.36 1015.46 1015.49 1015.46 1015.41 1015.36 1015.34 1015.36 1015.43
1008.94 1010.08 1011.19 1012.10 1012.64 1012.70 1012.23 1011.28 1009.97 1008.46 1006.94 1005.60 1004.57 1003.92 1003.66 1003.76 1004.12 1004.67 1005.31 1005.97 1006.63 1007.29 1007.97 1008.68 1009.44 1010.25 1011.08 1011.88 1012.60 1013.21 1013.69 1014.03 1014.24 1014.38 1014.49 1014.60 1014.74 1014.90 1015.09 1015.27 1015.40 1015.48 1015.49 1015.45 1015.38 1015.32 1015.29 1015.32 1015.38
1009.01 1010.20 1011.37 1012.33 1012.89 1012.96 1012.49 1011.51 1010.15 1008.56 1006.95 1005.50 1004.36 1003.60 1003.24 1003.25 1003.57 1004.10 1004.75 1005.45 1006.17 1006.90 1007.64 1008.40 1009.20 1010.03 1010.85 1011.64 1012.36 1012.97 1013.45 1013.80 1014.05 1014.24 1014.39 1014.54 1014.71 1014.90 1015.10 1015.28 1015.41 1015.48 1015.48 1015.43 1015.35 1015.28 1015.23 1015.24 1015.28
1009.03 1010.17 1011.28 1012.18 1012.71 1012.75 1012.27 1011.31 1009.97 1008.41 1006.82 1005.38 1004.23 1003.44 1003.05 1003.03 1003.31 1003.80 1004.44 1005.14 1005.87 1006.62 1007.38 1008.16 1008.97 1009.80 1010.61 1011.39 1012.10 1012.71 1013.20 1013.57 1013.85 1014.07 1014.27 1014.46 1014.66 1014.88 1015.09 1015.27 1015.40 1015.47 1015.46 1015.40 1015.31 1015.22 1015.16 1015.13 1015.14
1008.96 1009.94 1010.90 1011.66 1012.08 1012.07 1011.59 1010.68 1009.43 1007.99 1006.53 1005.20 1004.13 1003.40 1003.03 1003.00 1003.24 1003.70 1004.29 1004.95 1005.65 1006.38 1007.13 1007.91 1008.71 1009.52 1010.34 1011.11 1011.82 1012.44 1012.94 1013.35 1013.66 1013.92 1014.15 1014.37 1014.60 1014.83 1015.05 1015.24 1015.38 1015.44 1015.44 1015.38 1015.28 1015.17 1015.08 1015.03 1015.00
1008.75 1009.52 1010.26 1010.84 1011.12 1011.04 1010.56 1009.73 1008.62 1007.36 1006.09 1004.94 1004.03 1003.40 1003.09 1003.06 1003.28 1003.68 1004.20 1004.80 1005.44 1006.12 1006.84 1007.59 1008.39 1009.20 1010.02 1010.80 1011.53 1012.16 1012.70 1013.14 1013.49 1013.78 1014.04 1014.29 1014.55 1014.79 1015.02 1015.22 1015.36 1015.43 1015.43 1015.37 1015.27 1015.15 1015.04 1014.95 1014.89
Thickness
5821 5821 5819 5807 5783 5761 5760 5778 5795 5802 5809 5821 5826 5820 5808 5799 5789 5780 5804 5811 5807 5801 5798 5796 5794 5792 5790 5788 5786 5785 5783 5782 5781 5780 5779 5778 5777 5776 5774 5773 5772 5770 5769 5767 5766 5764 5763 5762 5762
5821 5820 5809 5791 5763 5744 5757 5784 5794 5804 5815 5824 5824 5820 5810 5802 5808 5804 5805 5806 5806 5801 5798 5794 5792 5790 5788 5786 5784 5783 5781 5780 5779 5778 5777 5775 5774 5773 5772 5770 5769 5768 5766 5765 5764 5762 5761 5760 5760
5820 5817 5794 5773 5756 5749 5764 5790 5799 5811 5823 5824 5817 5817 5809 5802 5808 5807 5808 5807 5804 5800 5797 5793 5791 5788 5786 5784 5782 5781 5779 5778 5777 5776 5774 5773 5772 5771 5769 5768 5767 5765 5764 5763 5762 5761 5760 5759 5758
5814 5800 5786 5764 5757 5770 5782 5795 5804 5810 5817 5821 5815 5805 5809 5816 5815 5813 5810 5806 5801 5798 5795 5793 5789 5787 5785 5783 5781 5779 5777 5775 5774 5773 5772 5770 5769 5768 5767 5765 5764 5763 5762 5761 5760 5759 5758 5757 5756
5807 5786 5766 5754 5762 5781 5796 5804 5809 5806 5808 5813 5812 5797 5798 5814 5819 5815 5809 5804 5799 5795 5793 5791 5788 5785 5783 5781 5779 5777 5775 5773 5772 5771 5769 5768 5766 5765 5764 5763 5762 5761 5760 5759 5758 5757 5756 5755 5754
5789 5775 5753 5747 5764 5785 5798 5808 5810 5805 5806 5811 5808 5796 5794 5810 5811 5809 5808 5803 5800 5795 5791 5788 5785 5783 5780 5778 5777 5775 5773 5771 5770 5769 5767 5765 5764 5763 5762 5761 5760 5759 5758 5757 5756 5755 5754 5753 5752
5780 5766 5754 5759 5765 5778 5797 5809 5806 5802 5802 5808 5812 5793 5792 5801 5808 5808 5805 5801 5797 5793 5789 5786 5783 5781 5778 5776 5774 5772 5771 5769 5767 5766 5765 5763 5762 5760 5759 5759 5758 5757 5756 5755 5754 5754 5753 5752 5751
5790 5768 5760 5762 5766 5776 5799 5807 5810 5807 5805 5817 5816 5794 5788 5799 5806 5805 5801 5797 5793 5790 5787 5784 5781 5778 5776 5774 5772 5770 5768 5767 5765 5763 5762 5760 5759 5758 5757 5756 5756 5755 5754 5753 5752 5752 5751 5751 5750
5795 5761 5751 5764 5772 5782 5799 5799 5807 5817 5811 5812 5815 5809 5808 5808 5805 5798 5792 5788 5786 5785 5784 5782 5779 5776 5773 5771 5769 5767 5765 5764 5762 5761 5759 5758 5757 5756 5755 5754 5754 5753 5752 5752 5750 5750 5750 5749 5749
5782 5756 5767 5786 5790 5792 5799 5800 5804 5803 5799 5799 5803 5808 5810 5805 5799 5792 5787 5783 5781 5780 5780 5779 5777 5773 5771 5769 5766 5764 5763 5761 5759 5758 5757 5755 5754 5753 5753 5752 5752 5751 5751 5750 5748 5748 5747 5747 5747
5784 5773 5786 5796 5802 5802 5799 5801 5808 5798 5789 5795 5796 5799 5801 5798 5794 5790 5786 5784 5783 5782 5780 5777 5776 5773 5769 5766 5764 5761 5760 5758 5756 5755 5754 5752 5750 5750 5749 5749 5749 5748 5748 5747 5746 5745 5744 5744 5744
5785 5790 5796 5799 5807 5803 5799 5800 5800 5800 5799 5808 5807 5803 5799 5794 5790 5789 5786 5784 5782 5780 5778 5777 5775 5772 5768 5765 5762 5759 5757 5755 5753 5752 5751 5749 5748 5747 5746 5746 5745 5745 5744 5744 5743 5742 5741 5741 5741
5784 5789 5800 5805 5805 5804 5802 5798 5798 5798 5808 5811 5808 5803 5795 5792 5791 5790 5789 5786 5782 5778 5777 5774 5772 5769 5766 5763 5760 5757 5755 5753 5751 5749 5748 5747 5746 5744 5744 5743 5742 5742 5741 5740 5739 5738 5738 5738 5737
5788 5791 5797 5801 5801 5803 5797 5796 5795 5795 5807 5804 5800 5796 5794 5791 5789 5786 5782 5780 5778 5776 5775 5774 5770 5767 5764 5762 5759 5756 5753 5751 5749 5747 5745 5744 5744 5743 5741 5740 5739 5738 5738 5737 5736 5735 5734 5734 5734
5792 5783 5785 5793 5797 5798 5795 5780 5787 5797 5801 5797 5794 5791 5789 5787 5787 5784 5781 5779 5778 5776 5773 5770 5769 5765 5761 5759 5758 5755 5752 5749 5746 5744 5743 5741 5741 5740 5739 5737 5736 5735 5734 5733 5732 5732 5731 5730 5730
5779 5769 5761 5783 5792 5796 5783 5761 5784 5797 5793 5787 5787 5786 5783 5781 5783 5783 5781 5779 5777 5774 5770 5767 5766 5762 5758 5756 5754 5752 5749 5746 5744 5742 5740 5739 5738 5737 5736 5734 5732 5731 5730 5730 5728 5727 5726 5725 5725
5756 5747 5753 5771 5790 5790 5778 5763 5782 5792 5789 5783 5782 5780 5778 5776 5777 5778 5779 5776 5773 5772 5766 5762 5761 5758 5755 5753 5750 5747 5745 5743 5741 5739 5737 5736 5736 5735 5734 5731 5730 5729 5727 5726 5725 5723 5723 5721 5720
5738 5746 5754 5760 5780 5781 5768 5765 5777 5785 5784 5780 5778 5776 5774 5771 5771 5775 5774 5772 5768 5767 5764 5759 5757 5755 5752 5749 5745 5742 5740 5739 5738 5736 5735 5734 5733 5732 5731 5729 5727 5726 5724 5722 5721 5720 5719 5718 5717
5754 5750 5749 5762 5780 5771 5762 5762 5770 5777 5777 5774 5771 5769 5768 5766 5767 5768 5768 5766 5762 5760 5759 5754 5752 5750 5748 5744 5739 5736 5734 5734 5733 5733 5732 5731 5731 5730 5728 5726 5724 5723 5721 5719 5719 5717 5715 5713 5713
5752 5745 5747 5759 5774 5766 5756 5756 5766 5771 5771 5772 5769 5765 5763 5760 5759 5760 5760 5759 5756 5754 5752 5752 5749 5748 5746 5743 5740 5737 5734 5732 5731 5730 5729 5728 5728 5727 5726 5724 5722 5720 5718 5716 5715 5714 5711 5709 5709
5751 5746 5748 5752 5761 5761 5751 5741 5751 5762 5767 5769 5768 5764 5762 5758 5755 5754 5754 5753 5752 5750 5750 5748 5745 5745 5743 5741 5737 5734 5731 5727 5726 5725 5724 5725 5725 5724 5723 5722 5720 5717 5715 5713 5712 5711 5708 5704 5703
5741 5761 5760 5755 5741 5728 5738 5714 5736 5749 5752 5755 5755 5754 5754 5754 5753 5751 5750 5748 5748 5747 5747 5745 5741 5741 5739 5738 5734 5730 5727 5723 5723 5723 5721 5722 5721 5721 5719 5718 5716 5714 5712 5710 5710 5708 5706 5703 5699
5752 5765 5759 5752 5737 5723 5726 5711 5720 5738 5737 5743 5749 5750 5750 5750 5749 5748 5747 5746 5746 5745 5742 5740 5737 5736 5736 5735 5733 5729 5726 5723 5721 5720 5718 5717 5717 5716 5716 5715 5713 5710 5709 5707 5706 5704 5702 5700 5697
5763 5754 5746 5735 5720 5702 5716 5708 5708 5723 5733 5740 5745 5748 5747 5747 5746 5745 5745 5744 5742 5741 5738 5735 5733 5732 5732 5732 5730 5728 5724 5721 5718 5716 5714 5713 5712 5712 5711 5710 5709 5707 5705 5704 5703 5701 5699 5697 5695
5751 5723 5701 5698 5689 5692 5714 5707 5706 5730 5741 5741 5740 5742 5743 5743 5741 5740 5739 5738 5737 5736 5733 5732 5731 5729 5729 5729 5727 5725 5722 5720 5717 5715 5712 5710 5709 5708 5707 5706 5705 5703 5702 5701 5700 5698 5696 5694 5692
5741 5725 5695 5683 5682 5691 5707 5699 5713 5734 5740 5743 5742 5740 5739 5737 5735 5736 5736 5735 5732 5731 5730 5730 5729 5727 5726 5725 5723 5722 5721 5719 5716 5714 5712 5709 5707 5706 5705 5703 5702 5700 5699 5698 5696 5694 5692 5691 5689
5736 5725 5725 5701 5696 5686 5692 5704 5717 5730 5731 5733 5735 5734 5732 5732 5731 5731 5731 5731 5729 5728 5728 5728 5726 5724 5723 5721 5720 5718 5717 5716 5714 5712 5710 5708 5705 5704 5702 5700 5698 5697 5696 5695 5693 5690 5688 5687 5685
5748 5736 5712 5695 5681 5676 5687 5694 5698 5713 5718 5724 5725 5726 5727 5730 5729 5728 5727 5726 5726 5726 5725 5724 5722 5720 5718 5718 5717 5715 5714 5713 5711 5709 5706 5704 5703 5701 5699 5696 5694 5693 5692 5690 5689 5686 5685 5683 5681
5736 5728 5714 5697 5691 5678 5673 5687 5719 5717 5720 5720 5721 5723 5726 5727 5726 5724 5721 5722 5722 5722 5722 5720 5717 5715 5714 5714 5713 5712 5710 5709 5707 5705 5703 5701 5699 5697 5695 5694 5692 5690 5688 5687 5685 5683 5681 5679 5678
5742 5731 5714 5694 5688 5687 5678 5688 5726 5724 5724 5722 5720 5721 5723 5723 5722 5720 5718 5717 5717 5717 5717 5716 5714 5712 5711 5710 5709 5708 5706 5704 5702 5700 5699 5698 5696 5694 5692 5691 5689 5687 5685 5684 5682 5679 5678 5676 5675